| time (UTC) | temp F | wind direction | speed MPH | gust MPH | rain 1hr in | rain 24hr in | rain mn in | humidity % | barometer mb |
| 20260509223946 | 82 | 80 | 2.0 | 4.0 | 0.00 | 0.19 | 0.19 | 73 | 1010.0 |
| 20260509223442 | 82 | 80 | 2.0 | 4.0 | 0.00 | 0.19 | 0.19 | 73 | 1009.9 |
| 20260509222940 | 82 | 337 | 2.0 | 4.0 | 0.00 | 0.19 | 0.19 | 74 | 1009.9 |
| 20260509222435 | 83 | 45 | 3.0 | 3.0 | 0.00 | 0.19 | 0.19 | 73 | 1009.7 |
| 20260509221931 | 83 | 100 | 2.0 | 3.0 | 0.00 | 0.19 | 0.19 | 73 | 1009.8 |
| 20260509221428 | 83 | 124 | 4.0 | 6.0 | 0.00 | 0.19 | 0.19 | 73 | 1009.9 |
| 20260509220924 | 82 | 38 | 2.0 | 3.0 | 0.00 | 0.19 | 0.19 | 73 | 1009.8 |
| 20260509220420 | 83 | 133 | 3.0 | 4.0 | 0.00 | 0.19 | 0.19 | 72 | 1009.8 |
| 20260509215916 | 84 | 129 | 3.0 | 5.0 | 0.00 | 0.19 | 0.19 | 71 | 1010.0 |
| 20260509215412 | 83 | 116 | 1.0 | 2.0 | 0.00 | 0.19 | 0.19 | 72 | 1009.9 |
| 20260509214910 | 82 | 52 | 3.0 | 4.0 | 0.00 | 0.19 | 0.19 | 76 | 1010.2 |
| 20260509214407 | 80 | 99 | 3.0 | 4.0 | 0.00 | 0.19 | 0.19 | 77 | 1010.0 |
| 20260509213904 | 81 | 136 | 3.0 | 4.0 | 0.00 | 0.19 | 0.19 | 76 | 1010.1 |
| 20260509213359 | 82 | 134 | 4.0 | 4.0 | 0.00 | 0.19 | 0.19 | 75 | 1010.1 |
| 20260509212857 | 82 | 125 | 2.0 | 4.0 | 0.00 | 0.19 | 0.19 | 74 | 1010.3 |
| 20260509212354 | 82 | 82 | 4.0 | 4.0 | 0.00 | 0.19 | 0.19 | 74 | 1010.2 |
| 20260509211850 | 82 | 133 | 3.0 | 3.0 | 0.00 | 0.19 | 0.19 | 73 | 1010.3 |
| 20260509211346 | 81 | 27 | 3.0 | 4.0 | 0.00 | 0.19 | 0.19 | 76 | 1010.3 |
| 20260509210843 | 82 | 16 | 3.0 | 4.0 | 0.00 | 0.19 | 0.19 | 75 | 1010.3 |
| 20260509210340 | 81 | 127 | 3.0 | 5.0 | 0.00 | 0.19 | 0.19 | 77 | 1010.4 |
| 20260509205840 | 81 | 39 | 4.0 | 5.0 | 0.00 | 0.19 | 0.19 | 76 | 1010.4 |
| 20260509205334 | 81 | 79 | 1.0 | 3.0 | 0.00 | 0.19 | 0.19 | 77 | 1010.4 |
| 20260509204831 | 81 | 57 | 2.0 | 5.0 | 0.00 | 0.19 | 0.19 | 76 | 1010.4 |
| 20260509204328 | 82 | 358 | 2.0 | 2.0 | 0.00 | 0.19 | 0.19 | 76 | 1010.5 |
| 20260509203824 | 81 | 228 | 1.0 | 4.0 | 0.00 | 0.19 | 0.19 | 77 | 1010.6 |
| 20260509203321 | 81 | 27 | 2.0 | 4.0 | 0.00 | 0.19 | 0.19 | 76 | 1010.7 |
| 20260509202817 | 82 | 6 | 4.0 | 5.0 | 0.00 | 0.19 | 0.19 | 75 | 1010.6 |
| 20260509202314 | 81 | 64 | 1.0 | 6.0 | 0.00 | 0.19 | 0.19 | 78 | 1010.6 |
| 20260509201813 | 81 | 25 | 1.0 | 4.0 | 0.00 | 0.19 | 0.19 | 78 | 1010.6 |
| 20260509201310 | 80 | 134 | 5.0 | 6.0 | 0.00 | 0.19 | 0.19 | 79 | 1010.7 |
| 20260509200806 | 79 | 78 | 3.0 | 11.0 | 0.00 | 0.19 | 0.19 | 81 | 1010.8 |
| 20260509200302 | 79 | 79 | 2.0 | 6.0 | 0.00 | 0.19 | 0.19 | 80 | 1010.9 |
| 20260509195759 | 80 | 35 | 5.0 | 5.0 | 0.02 | 0.19 | 0.19 | 78 | 1011.2 |
| 20260509195254 | 81 | 343 | 2.0 | 3.0 | 0.00 | 0.18 | 0.18 | 76 | 1011.0 |
| 20260509194753 | 81 | 60 | 4.0 | 4.0 | 0.00 | 0.18 | 0.18 | 78 | 1011.0 |
| 20260509194250 | 81 | 41 | 2.0 | 2.0 | 0.00 | 0.18 | 0.18 | 77 | 1011.1 |
| 20260509193747 | 81 | 104 | 3.0 | 3.0 | 0.00 | 0.18 | 0.18 | 78 | 1011.1 |
| 20260509193247 | 80 | 103 | 0.0 | 6.0 | 0.00 | 0.18 | 0.18 | 78 | 1011.2 |
| 20260509192743 | 79 | 6 | 0.0 | 2.0 | 0.00 | 0.18 | 0.18 | 80 | 1011.1 |
| 20260509192243 | 79 | 123 | 1.0 | 2.0 | 0.00 | 0.18 | 0.18 | 81 | 1011.5 |
| 20260509191739 | 79 | 170 | 1.0 | 3.0 | 0.00 | 0.18 | 0.18 | 83 | 1011.5 |
| 20260509191236 | 79 | 55 | 3.0 | 6.0 | 0.00 | 0.18 | 0.18 | 82 | 1011.3 |
| 20260509190732 | 79 | 66 | 2.0 | 4.0 | 0.00 | 0.18 | 0.18 | 83 | 1011.3 |
| 20260509190229 | 78 | 144 | 1.0 | 4.0 | 0.00 | 0.18 | 0.18 | 83 | 1011.7 |
| 20260509185727 | 78 | 95 | 1.0 | 4.0 | 0.02 | 0.18 | 0.18 | 85 | 1011.7 |
| 20260509185223 | 77 | 76 | 2.0 | 3.0 | 0.02 | 0.18 | 0.18 | 85 | 1011.6 |
| 20260509184720 | 77 | 25 | 1.0 | 3.0 | 0.00 | 0.18 | 0.18 | 86 | 1011.7 |
| 20260509184218 | 77 | 118 | 2.0 | 4.0 | 0.00 | 0.18 | 0.18 | 86 | 1011.6 |
| 20260509183714 | 78 | 119 | 3.0 | 6.0 | 0.00 | 0.18 | 0.18 | 84 | 1011.8 |
| 20260509183209 | 77 | 218 | 0.0 | 3.0 | 0.00 | 0.18 | 0.18 | 86 | 1011.9 |
| 20260509182705 | 77 | 122 | 2.0 | 3.0 | 0.00 | 0.18 | 0.18 | 86 | 1011.7 |
| 20260509182203 | 76 | 185 | 2.0 | 3.0 | 0.00 | 0.18 | 0.18 | 86 | 1012.0 |
| 20260509181700 | 77 | 139 | 1.0 | 2.0 | 0.02 | 0.18 | 0.18 | 86 | 1011.9 |
| 20260509181157 | 77 | 248 | 0.0 | 2.0 | 0.02 | 0.18 | 0.18 | 86 | 1012.1 |
| 20260509180654 | 76 | 44 | 0.0 | 2.0 | 0.00 | 0.18 | 0.18 | 86 | 1012.1 |
| 20260509180150 | 76 | 200 | 0.0 | 2.0 | 0.00 | 0.18 | 0.18 | 87 | 1012.1 |
| 20260509175646 | 76 | 131 | 0.0 | 2.0 | 0.00 | 0.18 | 0.18 | 87 | 1012.1 |
| 20260509175143 | 76 | 304 | 0.0 | 1.0 | 0.00 | 0.18 | 0.18 | 86 | 1012.2 |
| 20260509174639 | 76 | 266 | 0.0 | 2.0 | 0.02 | 0.18 | 0.18 | 87 | 1012.2 |
| 20260509174140 | 76 | 117 | 0.0 | 2.0 | 0.02 | 0.18 | 0.18 | 87 | 1012.3 |
| 20260509173636 | 76 | 122 | 1.0 | 3.0 | 0.00 | 0.17 | 0.17 | 87 | 1012.2 |
| 20260509173131 | 75 | 147 | 1.0 | 3.0 | 0.00 | 0.17 | 0.17 | 89 | 1012.1 |
| 20260509172629 | 75 | 115 | 3.0 | 4.0 | 0.00 | 0.17 | 0.17 | 89 | 1012.4 |
| 20260509172124 | 75 | 146 | 1.0 | 2.0 | 0.00 | 0.17 | 0.17 | 90 | 1012.6 |
| 20260509171621 | 74 | 202 | 0.0 | 2.0 | 0.00 | 0.17 | 0.17 | 90 | 1012.2 |
| 20260509171117 | 74 | 179 | 0.0 | 2.0 | 0.02 | 0.17 | 0.17 | 91 | 1012.4 |
| 20260509170613 | 74 | 153 | 0.0 | 3.0 | 0.02 | 0.17 | 0.17 | 90 | 1012.4 |
| 20260509170110 | 74 | 219 | 1.0 | 2.0 | 0.00 | 0.17 | 0.17 | 91 | 1012.5 |
| 20260509165608 | 74 | 50 | 0.0 | 2.0 | 0.00 | 0.17 | 0.17 | 90 | 1012.5 |
| 20260509165103 | 74 | 21 | 0.0 | 2.0 | 0.00 | 0.17 | 0.17 | 91 | 1012.4 |
| 20260509164600 | 73 | 150 | 2.0 | 2.0 | 0.00 | 0.17 | 0.17 | 91 | 1012.3 |
| 20260509164055 | 73 | 171 | 2.0 | 3.0 | 0.00 | 0.17 | 0.17 | 91 | 1012.4 |
| 20260509163554 | 74 | 76 | 0.0 | 1.0 | 0.00 | 0.17 | 0.17 | 91 | 1012.6 |
| 20260509163054 | 73 | 92 | 1.0 | 2.0 | 0.00 | 0.17 | 0.17 | 91 | 1012.4 |
| 20260509162552 | 73 | 186 | 1.0 | 3.0 | 0.00 | 0.17 | 0.17 | 92 | 1012.3 |
| 20260509162047 | 73 | 158 | 1.0 | 2.0 | 0.00 | 0.17 | 0.17 | 93 | 1012.5 |
| 20260509161544 | 73 | 121 | 1.0 | 3.0 | 0.02 | 0.17 | 0.17 | 94 | 1012.2 |
| 20260509161039 | 72 | 174 | 1.0 | 2.0 | 0.02 | 0.17 | 0.17 | 96 | 1012.1 |
| 20260509160535 | 71 | 117 | 2.0 | 2.0 | 0.00 | 0.17 | 0.17 | 97 | 1012.2 |
| 20260509160030 | 71 | 97 | 2.0 | 2.0 | 0.00 | 0.17 | 0.17 | 98 | 1012.2 |
| 20260509155527 | 71 | 184 | 0.0 | 3.0 | 0.00 | 0.17 | 0.17 | 98 | 1012.2 |
| 20260509155023 | 70 | 89 | 2.0 | 2.0 | 0.00 | 0.17 | 0.17 | 98 | 1012.2 |
| 20260509154519 | 70 | 185 | 1.0 | 3.0 | 0.00 | 0.17 | 0.17 | 98 | 1012.2 |
| 20260509154017 | 70 | 158 | 2.0 | 2.0 | 0.00 | 0.17 | 0.17 | 98 | 1011.9 |
| 20260509153514 | 69 | 142 | 1.0 | 2.0 | 0.00 | 0.17 | 0.17 | 98 | 1012.0 |
| 20260509153011 | 69 | 37 | 0.0 | 2.0 | 0.00 | 0.17 | 0.17 | 98 | 1011.8 |
| 20260509152506 | 69 | 12 | 0.0 | 2.0 | 0.00 | 0.17 | 0.17 | 98 | 1012.0 |
| 20260509152003 | 69 | 201 | 0.0 | 1.0 | 0.02 | 0.17 | 0.17 | 98 | 1012.0 |
| 20260509151500 | 69 | 57 | 2.0 | 3.0 | 0.02 | 0.17 | 0.17 | 98 | 1012.0 |
| 20260509150958 | 69 | 143 | 2.0 | 2.0 | 0.00 | 0.16 | 0.16 | 98 | 1012.0 |
| 20260509150455 | 68 | 354 | 0.0 | 2.0 | 0.00 | 0.16 | 0.16 | 98 | 1011.9 |
| 20260509145953 | 68 | 31 | 2.0 | 4.0 | 0.00 | 0.16 | 0.16 | 98 | 1011.9 |
| 20260509145448 | 68 | 144 | 0.0 | 1.0 | 0.00 | 0.16 | 0.16 | 98 | 1011.9 |
| 20260509144944 | 68 | 113 | 0.0 | 1.0 | 0.00 | 0.16 | 0.16 | 98 | 1012.0 |
| 20260509144441 | 68 | 116 | 0.0 | 3.0 | 0.00 | 0.16 | 0.16 | 98 | 1012.2 |
| 20260509143938 | 68 | 103 | 0.0 | 0.0 | 0.00 | 0.16 | 0.16 | 98 | 1012.2 |
| 20260509143435 | 68 | 34 | 2.0 | 2.0 | 0.02 | 0.16 | 0.16 | 98 | 1012.2 |
| 20260509142931 | 68 | 154 | 2.0 | 2.0 | 0.02 | 0.16 | 0.16 | 98 | 1012.2 |
| 20260509142428 | 68 | 138 | 0.0 | 2.0 | 0.00 | 0.16 | 0.16 | 98 | 1012.1 |
| 20260509141924 | 68 | 89 | 0.0 | 2.0 | 0.00 | 0.16 | 0.16 | 98 | 1012.0 |
| 20260509141421 | 68 | 132 | 2.0 | 3.0 | 0.00 | 0.16 | 0.16 | 98 | 1012.3 |
| 20260509140918 | 67 | 91 | 2.0 | 3.0 | 0.00 | 0.16 | 0.16 | 98 | 1012.1 |
| 20260509140414 | 67 | 89 | 0.0 | 2.0 | 0.00 | 0.16 | 0.16 | 98 | 1012.5 |
| 20260509135913 | 67 | 23 | 0.0 | 1.0 | 0.00 | 0.16 | 0.16 | 98 | 1012.5 |
| 20260509135410 | 67 | 37 | 2.0 | 2.0 | 0.00 | 0.16 | 0.16 | 98 | 1012.3 |
| 20260509134907 | 67 | 124 | 0.0 | 1.0 | 0.02 | 0.16 | 0.16 | 98 | 1012.4 |
| 20260509134404 | 67 | 119 | 0.0 | 1.0 | 0.02 | 0.16 | 0.16 | 98 | 1012.5 |
| 20260509133901 | 67 | 322 | 0.0 | 1.0 | 0.00 | 0.15 | 0.15 | 98 | 1012.4 |
| 20260509133358 | 67 | 74 | 0.0 | 2.0 | 0.00 | 0.15 | 0.15 | 98 | 1012.5 |
| 20260509132856 | 67 | 28 | 1.0 | 2.0 | 0.00 | 0.15 | 0.15 | 98 | 1012.5 |
| 20260509132354 | 67 | 112 | 2.0 | 2.0 | 0.00 | 0.15 | 0.15 | 98 | 1012.4 |
| 20260509131851 | 67 | 142 | 0.0 | 2.0 | 0.00 | 0.15 | 0.15 | 98 | 1012.3 |
| 20260509131348 | 67 | 120 | 2.0 | 3.0 | 0.00 | 0.15 | 0.15 | 98 | 1012.4 |
| 20260509130844 | 67 | 109 | 0.0 | 2.0 | 0.02 | 0.15 | 0.15 | 98 | 1012.3 |
| 20260509130340 | 67 | 132 | 2.0 | 2.0 | 0.02 | 0.15 | 0.15 | 98 | 1012.3 |
| 20260509125837 | 67 | 140 | 2.0 | 3.0 | 0.00 | 0.15 | 0.15 | 98 | 1012.3 |
| 20260509125333 | 67 | 63 | 0.0 | 2.0 | 0.00 | 0.15 | 0.15 | 98 | 1012.3 |
| 20260509124829 | 66 | 136 | 0.0 | 2.0 | 0.00 | 0.15 | 0.15 | 98 | 1012.1 |
| 20260509124326 | 67 | 126 | 0.0 | 2.0 | 0.00 | 0.15 | 0.15 | 98 | 1012.1 |
| 20260509123825 | 66 | 92 | 1.0 | 2.0 | 0.00 | 0.15 | 0.15 | 98 | 1012.0 |
| 20260509123322 | 67 | 17 | 1.0 | 2.0 | 0.02 | 0.15 | 0.15 | 98 | 1011.9 |
| 20260509122817 | 66 | 60 | 2.0 | 2.0 | 0.02 | 0.15 | 0.15 | 98 | 1012.0 |
| 20260509122314 | 66 | 128 | 0.0 | 2.0 | 0.00 | 0.15 | 0.15 | 98 | 1011.7 |
| 20260509121811 | 66 | 269 | 0.0 | 2.0 | 0.00 | 0.15 | 0.15 | 98 | 1011.9 |
| 20260509121308 | 66 | 119 | 0.0 | 2.0 | 0.00 | 0.15 | 0.15 | 98 | 1011.7 |
| 20260509120807 | 66 | 126 | 0.0 | 2.0 | 0.00 | 0.15 | 0.15 | 98 | 1011.5 |
| 20260509120304 | 66 | 125 | 2.0 | 3.0 | 0.00 | 0.15 | 0.15 | 98 | 1011.6 |
| 20260509115802 | 66 | 131 | 4.0 | 4.0 | 0.00 | 0.15 | 0.15 | 98 | 1011.8 |
| 20260509115259 | 66 | 122 | 1.0 | 2.0 | 0.02 | 0.15 | 0.15 | 98 | 1011.7 |
| 20260509114756 | 66 | 35 | 3.0 | 3.0 | 0.00 | 0.14 | 0.14 | 98 | 1011.7 |
| 20260509114255 | 66 | 17 | 1.0 | 2.0 | 0.00 | 0.14 | 0.14 | 98 | 1011.7 |
| 20260509113754 | 66 | 64 | 3.0 | 4.0 | 0.00 | 0.14 | 0.14 | 98 | 1011.7 |
| 20260509113250 | 67 | 15 | 2.0 | 2.0 | 0.00 | 0.14 | 0.14 | 98 | 1011.5 |
| 20260509112747 | 67 | 124 | 2.0 | 3.0 | 0.00 | 0.14 | 0.14 | 98 | 1011.5 |
| 20260509112244 | 67 | 28 | 1.0 | 2.0 | 0.00 | 0.14 | 0.14 | 98 | 1011.3 |
| 20260509111742 | 67 | 121 | 1.0 | 2.0 | 0.00 | 0.14 | 0.14 | 98 | 1011.4 |
| 20260509111238 | 67 | 77 | 1.0 | 3.0 | 0.00 | 0.14 | 0.14 | 98 | 1011.4 |
| 20260509110735 | 67 | 43 | 3.0 | 4.0 | 0.00 | 0.14 | 0.14 | 98 | 1011.1 |
| 20260509110232 | 67 | 315 | 0.0 | 2.0 | 0.02 | 0.14 | 0.14 | 98 | 1011.1 |
| 20260509105730 | 67 | 53 | 1.0 | 2.0 | 0.02 | 0.14 | 0.14 | 98 | 1010.8 |
| 20260509105227 | 67 | 220 | 1.0 | 1.0 | 0.00 | 0.14 | 0.14 | 98 | 1010.9 |
| 20260509104724 | 67 | 119 | 1.0 | 2.0 | 0.00 | 0.14 | 0.14 | 98 | 1010.8 |
| 20260509104221 | 67 | 133 | 1.0 | 2.0 | 0.00 | 0.14 | 0.14 | 98 | 1010.8 |
| 20260509103720 | 68 | 261 | 0.0 | 0.0 | 0.00 | 0.14 | 0.14 | 98 | 1010.9 |
| 20260509103216 | 68 | 217 | 0.0 | 1.0 | 0.00 | 0.14 | 0.14 | 98 | 1010.6 |
| 20260509102715 | 68 | 142 | 0.0 | 2.0 | 0.00 | 0.14 | 0.14 | 98 | 1010.7 |
| 20260509102211 | 68 | 224 | 0.0 | 0.0 | 0.00 | 0.14 | 0.14 | 98 | 1010.7 |
| 20260509101707 | 67 | 107 | 0.0 | 2.0 | 0.00 | 0.14 | 0.14 | 98 | 1010.9 |
| 20260509101204 | 67 | 123 | 0.0 | 2.0 | 0.00 | 0.14 | 0.14 | 98 | 1010.9 |
| 20260509100701 | 67 | 198 | 0.0 | 1.0 | 0.02 | 0.14 | 0.14 | 98 | 1011.1 |
| 20260509100158 | 67 | 119 | 0.0 | 1.0 | 0.02 | 0.14 | 0.14 | 98 | 1010.9 |
| 20260509095655 | 67 | 133 | 2.0 | 2.0 | 0.00 | 0.13 | 0.13 | 98 | 1010.8 |
| 20260509095153 | 67 | 202 | 0.0 | 0.0 | 0.00 | 0.13 | 0.13 | 98 | 1011.1 |
| 20260509094649 | 67 | 123 | 0.0 | 1.0 | 0.00 | 0.13 | 0.13 | 98 | 1010.7 |
| 20260509094146 | 67 | 180 | 1.0 | 1.0 | 0.00 | 0.13 | 0.13 | 98 | 1010.5 |
| 20260509093644 | 67 | 146 | 0.0 | 1.0 | 0.00 | 0.13 | 0.13 | 98 | 1010.5 |
| 20260509093141 | 67 | 118 | 1.0 | 2.0 | 0.00 | 0.13 | 0.13 | 98 | 1010.6 |
| 20260509092639 | 67 | 95 | 0.0 | 1.0 | 0.00 | 0.13 | 0.13 | 97 | 1010.7 |
| 20260509092137 | 67 | 50 | 2.0 | 2.0 | 0.02 | 0.13 | 0.13 | 97 | 1010.7 |
| 20260509091635 | 67 | 133 | 0.0 | 2.0 | 0.02 | 0.13 | 0.13 | 97 | 1010.8 |
| 20260509091131 | 67 | 0 | 0.0 | 0.0 | 0.00 | 0.13 | 0.13 | 97 | 1010.8 |
| 20260509090629 | 67 | 28 | 0.0 | 2.0 | 0.00 | 0.13 | 0.13 | 97 | 1010.8 |
| 20260509090126 | 67 | 120 | 1.0 | 2.0 | 0.00 | 0.13 | 0.13 | 97 | 1011.0 |
| 20260509085623 | 67 | 217 | 0.0 | 2.0 | 0.00 | 0.13 | 0.13 | 97 | 1010.8 |
| 20260509085119 | 67 | 207 | 1.0 | 2.0 | 0.00 | 0.13 | 0.13 | 97 | 1010.7 |
| 20260509084617 | 67 | 202 | 1.0 | 2.0 | 0.00 | 0.13 | 0.13 | 97 | 1010.8 |
| 20260509084113 | 67 | 34 | 0.0 | 2.0 | 0.02 | 0.13 | 0.13 | 97 | 1010.9 |
| 20260509083611 | 67 | 267 | 1.0 | 2.0 | 0.02 | 0.13 | 0.13 | 97 | 1010.9 |
| 20260509083107 | 67 | 277 | 1.0 | 4.0 | 0.00 | 0.13 | 0.13 | 97 | 1011.0 |
| 20260509082605 | 66 | 150 | 0.0 | 2.0 | 0.00 | 0.13 | 0.13 | 97 | 1010.8 |
| 20260509082101 | 66 | 253 | 4.0 | 4.0 | 0.00 | 0.13 | 0.13 | 97 | 1010.8 |
| 20260509081559 | 66 | 241 | 3.0 | 5.0 | 0.00 | 0.13 | 0.13 | 97 | 1010.8 |
| 20260509081055 | 67 | 250 | 1.0 | 2.0 | 0.00 | 0.13 | 0.13 | 97 | 1010.8 |
| 20260509080554 | 67 | 321 | 0.0 | 2.0 | 0.02 | 0.13 | 0.13 | 97 | 1010.9 |
| 20260509080051 | 67 | 269 | 0.0 | 1.0 | 0.00 | 0.12 | 0.12 | 97 | 1010.8 |
| 20260509075549 | 66 | 157 | 0.0 | 1.0 | 0.00 | 0.12 | 0.12 | 97 | 1010.6 |
| 20260509075047 | 66 | 37 | 0.0 | 0.0 | 0.00 | 0.12 | 0.12 | 97 | 1010.8 |
| 20260509074543 | 66 | 131 | 0.0 | 2.0 | 0.00 | 0.12 | 0.12 | 97 | 1010.8 |
| 20260509074040 | 66 | 180 | 0.0 | 2.0 | 0.02 | 0.12 | 0.12 | 97 | 1010.9 |
| 20260509073536 | 66 | 189 | 0.0 | 1.0 | 0.02 | 0.12 | 0.12 | 96 | 1010.8 |
| 20260509073033 | 66 | 237 | 0.0 | 1.0 | 0.00 | 0.12 | 0.12 | 96 | 1011.1 |
| 20260509072529 | 66 | 103 | 0.0 | 2.0 | 0.00 | 0.12 | 0.12 | 96 | 1011.1 |
| 20260509072026 | 66 | 142 | 2.0 | 2.0 | 0.02 | 0.12 | 0.12 | 96 | 1010.9 |
| 20260509071523 | 66 | 134 | 2.0 | 4.0 | 0.02 | 0.12 | 0.12 | 96 | 1011.0 |
| 20260509071020 | 67 | 176 | 4.0 | 6.0 | 0.00 | 0.11 | 0.11 | 96 | 1011.1 |
| 20260509070518 | 68 | 174 | 2.0 | 4.0 | 0.00 | 0.11 | 0.11 | 96 | 1010.9 |
| 20260509070014 | 68 | 85 | 0.0 | 5.0 | 0.02 | 0.11 | 0.11 | 96 | 1011.1 |
| 20260509065509 | 68 | 117 | 4.0 | 6.0 | 0.02 | 0.11 | 0.11 | 96 | 1011.0 |
| 20260509065006 | 68 | 235 | 2.0 | 4.0 | 0.00 | 0.11 | 0.11 | 96 | 1011.1 |
| 20260509064503 | 68 | 230 | 1.0 | 3.0 | 0.02 | 0.11 | 0.11 | 96 | 1010.4 |
| 20260509064001 | 68 | 173 | 3.0 | 7.0 | 0.02 | 0.11 | 0.11 | 95 | 1010.1 |
| 20260509063456 | 68 | 114 | 5.0 | 6.0 | 0.02 | 0.11 | 0.11 | 95 | 1011.3 |
| 20260509062954 | 68 | 175 | 1.0 | 3.0 | 0.02 | 0.10 | 0.10 | 95 | 1012.0 |
| 20260509062451 | 68 | 118 | 3.0 | 5.0 | 0.05 | 0.10 | 0.10 | 94 | 1012.4 |
| 20260509061949 | 68 | 194 | 2.0 | 3.0 | 0.47 | 0.10 | 0.10 | 93 | 1013.3 |
| 20260509061446 | 69 | 203 | 3.0 | 5.0 | 0.57 | 0.09 | 0.09 | 92 | 1013.2 |
| 20260509060943 | 69 | 355 | 2.0 | 3.0 | 0.12 | 0.02 | 0.02 | 91 | 1013.6 |
| 20260509060440 | 70 | 247 | 2.0 | 3.0 | 0.00 | 0.00 | 0.00 | 90 | 1013.8 |
| 20260509055935 | 70 | 329 | 1.0 | 3.0 | 0.00 | 0.00 | 0.00 | 91 | 1013.2 |
| 20260509055431 | 70 | 339 | 0.0 | 2.0 | 0.00 | 0.00 | 0.00 | 91 | 1012.9 |
| 20260509054927 | 70 | 9 | 2.0 | 2.0 | 0.00 | 0.00 | 0.00 | 91 | 1012.9 |
| 20260509054424 | 70 | 124 | 0.0 | 1.0 | 0.00 | 0.00 | 0.00 | 91 | 1012.7 |
| 20260509053923 | 70 | 180 | 0.0 | 1.0 | 0.00 | 0.00 | 0.00 | 91 | 1013.0 |
| 20260509053420 | 69 | 198 | 1.0 | 2.0 | 0.00 | 0.00 | 0.00 | 91 | 1012.8 |
| 20260509052918 | 69 | 208 | 0.0 | 0.0 | 0.00 | 0.00 | 0.00 | 91 | 1012.8 |
| 20260509052415 | 69 | 138 | 0.0 | 1.0 | 0.00 | 0.00 | 0.00 | 91 | 1012.5 |
| 20260509051913 | 69 | 37 | 0.0 | 1.0 | 0.00 | 0.00 | 0.00 | 91 | 1012.5 |
| 20260509051411 | 69 | 143 | 0.0 | 0.0 | 0.00 | 0.00 | 0.00 | 91 | 1012.3 |
| 20260509050907 | 69 | 124 | 0.0 | 2.0 | 0.00 | 0.00 | 0.00 | 90 | 1012.2 |
| 20260509050404 | 69 | 129 | 0.0 | 1.0 | 0.00 | 0.00 | 0.00 | 90 | 1012.4 |
| 20260509045901 | 69 | 76 | 0.0 | 2.0 | 0.00 | 0.06 | 0.06 | 90 | 1012.4 |
| 20260509045357 | 69 | 142 | 0.0 | 2.0 | 0.00 | 0.06 | 0.06 | 90 | 1012.3 |
| 20260509044855 | 69 | 129 | 1.0 | 2.0 | 0.00 | 0.06 | 0.06 | 90 | 1012.3 |
| 20260509044353 | 69 | 125 | 2.0 | 3.0 | 0.00 | 0.06 | 0.06 | 90 | 1012.5 |
| 20260509043849 | 69 | 144 | 1.0 | 3.0 | 0.00 | 0.06 | 0.06 | 90 | 1012.5 |
| 20260509043345 | 69 | 113 | 0.0 | 2.0 | 0.00 | 0.06 | 0.06 | 89 | 1012.1 |
| 20260509042841 | 69 | 148 | 1.0 | 2.0 | 0.00 | 0.06 | 0.06 | 89 | 1012.3 |
| 20260509042337 | 69 | 83 | 2.0 | 3.0 | 0.00 | 0.06 | 0.06 | 89 | 1012.2 |
| 20260509041834 | 69 | 111 | 2.0 | 2.0 | 0.00 | 0.06 | 0.06 | 88 | 1012.2 |
| 20260509041331 | 69 | 122 | 2.0 | 2.0 | 0.00 | 0.06 | 0.06 | 88 | 1012.3 |
| 20260509040829 | 69 | 118 | 2.0 | 3.0 | 0.00 | 0.06 | 0.06 | 88 | 1012.1 |
| 20260509040327 | 69 | 114 | 2.0 | 4.0 | 0.00 | 0.06 | 0.06 | 87 | 1012.2 |
| 20260509035823 | 69 | 92 | 2.0 | 4.0 | 0.00 | 0.06 | 0.06 | 87 | 1012.1 |
| 20260509035321 | 69 | 117 | 3.0 | 3.0 | 0.00 | 0.06 | 0.06 | 86 | 1012.0 |
| 20260509034817 | 69 | 80 | 0.0 | 3.0 | 0.00 | 0.06 | 0.06 | 86 | 1012.0 |
| 20260509034315 | 69 | 103 | 2.0 | 5.0 | 0.00 | 0.06 | 0.06 | 86 | 1012.1 |
| 20260509033811 | 69 | 133 | 2.0 | 2.0 | 0.00 | 0.06 | 0.06 | 85 | 1011.9 |
| 20260509033309 | 69 | 151 | 2.0 | 2.0 | 0.00 | 0.06 | 0.06 | 85 | 1012.0 |
| 20260509032805 | 69 | 118 | 2.0 | 2.0 | 0.00 | 0.06 | 0.06 | 85 | 1011.9 |
| 20260509032306 | 69 | 123 | 2.0 | 2.0 | 0.00 | 0.06 | 0.06 | 86 | 1011.9 |
| 20260509031800 | 68 | 93 | 1.0 | 2.0 | 0.00 | 0.06 | 0.06 | 87 | 1011.8 |
| 20260509031257 | 68 | 202 | 0.0 | 0.0 | 0.00 | 0.06 | 0.06 | 87 | 1011.8 |
| 20260509030755 | 68 | 176 | 0.0 | 0.0 | 0.00 | 0.06 | 0.06 | 86 | 1011.6 |
| 20260509030253 | 68 | 144 | 0.0 | 2.0 | 0.00 | 0.06 | 0.06 | 86 | 1011.7 |
| 20260509025749 | 68 | 102 | 0.0 | 0.0 | 0.00 | 0.06 | 0.06 | 85 | 1011.5 |
| 20260509025244 | 68 | 186 | 0.0 | 1.0 | 0.00 | 0.06 | 0.06 | 85 | 1011.4 |
| 20260509024740 | 68 | 41 | 1.0 | 2.0 | 0.00 | 0.06 | 0.06 | 85 | 1011.3 |
| 20260509024236 | 68 | 30 | 0.0 | 2.0 | 0.00 | 0.06 | 0.06 | 85 | 1011.2 |
| 20260509023734 | 68 | 89 | 0.0 | 0.0 | 0.00 | 0.06 | 0.06 | 84 | 1010.9 |
| 20260509023231 | 68 | 180 | 0.0 | 2.0 | 0.00 | 0.06 | 0.06 | 84 | 1010.9 |
| 20260509022727 | 68 | 178 | 0.0 | 1.0 | 0.00 | 0.06 | 0.06 | 83 | 1010.8 |
| 20260509022225 | 69 | 124 | 0.0 | 1.0 | 0.00 | 0.06 | 0.06 | 83 | 1010.9 |
| 20260509021721 | 69 | 176 | 0.0 | 1.0 | 0.00 | 0.06 | 0.06 | 82 | 1010.7 |
| 20260509021219 | 69 | 130 | 0.0 | 0.0 | 0.00 | 0.06 | 0.06 | 81 | 1010.7 |
| 20260509020717 | 69 | 124 | 0.0 | 1.0 | 0.00 | 0.06 | 0.06 | 80 | 1010.5 |
| 20260509020213 | 70 | 150 | 1.0 | 1.0 | 0.00 | 0.06 | 0.06 | 79 | 1010.6 |
| 20260509015712 | 70 | 38 | 0.0 | 1.0 | 0.00 | 0.06 | 0.06 | 79 | 1010.8 |
| 20260509015210 | 70 | 129 | 0.0 | 1.0 | 0.00 | 0.06 | 0.06 | 78 | 1010.7 |
| 20260509014706 | 70 | 23 | 1.0 | 2.0 | 0.00 | 0.06 | 0.06 | 78 | 1010.4 |
| 20260509014203 | 70 | 23 | 1.0 | 2.0 | 0.00 | 0.06 | 0.06 | 78 | 1010.4 |
| 20260509013659 | 71 | 106 | 0.0 | 0.0 | 0.00 | 0.06 | 0.06 | 77 | 1010.3 |
| 20260509013155 | 71 | 166 | 0.0 | 2.0 | 0.00 | 0.06 | 0.06 | 76 | 1010.2 |
| 20260509012652 | 71 | 88 | 1.0 | 2.0 | 0.00 | 0.06 | 0.06 | 76 | 1010.4 |
| 20260509012149 | 71 | 25 | 1.0 | 2.0 | 0.00 | 0.06 | 0.06 | 76 | 1010.6 |
| 20260509011647 | 71 | 103 | 2.0 | 2.0 | 0.00 | 0.06 | 0.06 | 75 | 1010.6 |
| 20260509011144 | 71 | 159 | 2.0 | 2.0 | 0.00 | 0.06 | 0.06 | 74 | 1010.4 |
| 20260509010641 | 72 | 95 | 1.0 | 3.0 | 0.00 | 0.06 | 0.06 | 71 | 1010.5 |
| 20260509010137 | 72 | 95 | 1.0 | 3.0 | 0.00 | 0.06 | 0.06 | 71 | 1010.5 |
| 20260509005635 | 72 | 95 | 1.0 | 3.0 | 0.00 | 0.06 | 0.06 | 71 | 1010.6 |
| 20260509005131 | 73 | 5 | 2.0 | 2.0 | 0.00 | 0.06 | 0.06 | 71 | 1010.3 |
| 20260509004627 | 73 | 262 | 2.0 | 3.0 | 0.00 | 0.06 | 0.06 | 70 | 1010.3 |
| 20260509004125 | 73 | 300 | 0.0 | 6.0 | 0.00 | 0.06 | 0.06 | 70 | 1009.9 |
| 20260509003623 | 73 | 258 | 2.0 | 3.0 | 0.00 | 0.06 | 0.06 | 70 | 1009.8 |
| 20260509003120 | 74 | 275 | 3.0 | 3.0 | 0.00 | 0.06 | 0.06 | 70 | 1009.9 |
| 20260509002617 | 74 | 151 | 2.0 | 3.0 | 0.00 | 0.06 | 0.06 | 69 | 1009.7 |
| 20260509002114 | 74 | 183 | 1.0 | 5.0 | 0.00 | 0.06 | 0.06 | 69 | 1009.5 |
| 20260509001612 | 75 | 128 | 3.0 | 6.0 | 0.00 | 0.06 | 0.06 | 68 | 1009.5 |
| 20260509001107 | 75 | 352 | 1.0 | 7.0 | 0.00 | 0.06 | 0.06 | 68 | 1009.3 |
| 20260509000606 | 75 | 68 | 2.0 | 5.0 | 0.00 | 0.06 | 0.06 | 67 | 1009.4 |
| 20260508235600 | 75 | 142 | 2.0 | 6.0 | 0.00 | 0.06 | 0.06 | 65 | 1009.3 |
| 20260508235056 | 75 | 141 | 2.0 | 4.0 | 0.00 | 0.06 | 0.06 | 63 | 1009.7 |
| 20260508234553 | 76 | 181 | 3.0 | 4.0 | 0.00 | 0.06 | 0.06 | 60 | 1010.3 |
| 20260508234050 | 77 | 170 | 4.0 | 4.0 | 0.00 | 0.06 | 0.06 | 58 | 1010.2 |
| 20260508233549 | 78 | 214 | 0.0 | 2.0 | 0.00 | 0.06 | 0.06 | 57 | 1010.5 |
| 20260508233046 | 79 | 91 | 2.0 | 4.0 | 0.00 | 0.06 | 0.06 | 55 | 1010.5 |
| 20260508232543 | 79 | 172 | 1.0 | 2.0 | 0.00 | 0.06 | 0.06 | 56 | 1010.7 |
| 20260508232040 | 79 | 192 | 2.0 | 8.0 | 0.00 | 0.06 | 0.06 | 56 | 1010.5 |
| 20260508231538 | 78 | 148 | 1.0 | 6.0 | 0.00 | 0.06 | 0.06 | 59 | 1010.3 |
| 20260508231035 | 79 | 194 | 1.0 | 1.0 | 0.00 | 0.06 | 0.06 | 55 | 1010.9 |
| 20260508230531 | 79 | 194 | 1.0 | 1.0 | 0.00 | 0.06 | 0.06 | 55 | 1011.4 |
| 20260508230028 | 79 | 194 | 1.0 | 1.0 | 0.00 | 0.06 | 0.06 | 55 | 1011.2 |
| 20260508225525 | 79 | 306 | 0.0 | 2.0 | 0.00 | 0.06 | 0.06 | 55 | 1011.3 |
| 20260508225022 | 78 | 140 | 2.0 | 2.0 | 0.00 | 0.06 | 0.06 | 58 | 1011.3 |
| 20260508224520 | 78 | 122 | 2.0 | 5.0 | 0.00 | 0.06 | 0.06 | 54 | 1011.4 |